Location: Pittman
(37.9557°N, 80.9209°W)
Time: 20:26:31
(UTC+00:00)

BlueWalker 3 - Visible Passes

Search period start: 10 April 2026 00:00
Search period end: 20 April 2026 00:00
Orbit: 450 x 457 km, 53.2° (Epoch: 10 April)

Date Brightness Start Highest point End Pass type
(mag) Time Alt. Az. Time Alt. Az. Time Alt. Az.
10 Apr 2.7 00:37:47 10° NNW 00:41:08 35° NE 00:43:43 15° E visible
10 Apr 4.0 02:15:30 10° WNW 02:17:24 20° WSW 02:17:24 20° WSW visible
11 Apr 3.0 01:38:43 10° WNW 01:41:58 32° SW 01:42:37 30° SSW visible
12 Apr 2.6 01:02:03 10° WNW 01:05:31 45° SW 01:07:56 17° SSE visible
13 Apr 2.1 00:25:28 10° NW 00:29:00 66° SW 00:32:34 10° SE visible
15 Apr 4.6 00:51:22 10° W 00:52:56 12° SW 00:54:31 10° SSW visible
